Simultaneous Nadir Overpasses (SNOs) Predictions

Prediction of SNOs between METOP-A and NOAA-19 Satellite Orbit:

Table of predicted SNOs for the next 14.0 days since TLE Epoch: 4/29/2016
Index Date (METOP-A) Time (METOP-A) Lat,Lon (METOP-A) SZA (METOP-A ) Date (NOAA-19) Time (NOAA-19) Lat,Lon (NOAA-19) SZA (NOAA-19 ) Distance(km) Time Diff (sec)
1 05/08/2016 22:56:04 -76.32, 17.00 121.15 05/08/2016 22:54:54 -76.31, 15.00 121.17 52.74 70
2 05/08/2016 23:46:51 76.00,-176.78 58.52 05/08/2016 23:45:44 76.02,-176.67 58.53 3.36 67
3 05/09/2016 00:37:32 -76.03, -9.35 121.47 05/09/2016 00:36:50 -76.04, -9.51 121.46 4.12 42
4 05/09/2016 01:28:13 75.99, 157.82 58.48 05/09/2016 01:27:46 76.02, 157.84 58.51 3.28 27
5 05/09/2016 02:18:55 -75.97, -34.91 121.55 05/09/2016 02:18:51 -75.99, -34.84 121.53 3.01 4
6
